This demonstration page uses our WeatherBlox Daily Observations layout. Learn more.

Left ArrowRight Arrow

41.86663, -103.66717

Hourly Observations for January 3, 2020

Temp ( °F °C ) Dew Point ( °F °C ) Humidity (%) Winds ( mph kmh ) Pressure ( in mb ) Visibility ( mi km ) Precip ( " mm )
12:53 am 00:53 Cloudy 31 -0.6 26 -3.3 82 82 WNW 10 17 29.96 1015 10 16.0934 0 0
1:53 am 01:53 Mostly Cloudy 28 -2.2 25 -3.9 88 88 WNW 7 11 30 1016 10 16.0934 0 0
2:53 am 02:53 Mostly Cloudy 28 -2.2 23 -5 81 81 WNW 3 6 30.02 1017 10 16.0934 0 0
3:53 am 03:53 Mostly Cloudy 30 -1.1 24 -4.4 79 79 WNW 6 9 30.03 1017 10 16.0934 0 0
4:53 am 04:53 Cloudy 31 -0.6 23 -5 72 72 WNW 8 13 30.05 1018 10 16.0934 0 0
5:53 am 05:53 Cloudy 29 -1.7 23 -5 78 78 WNW 7 11 30.07 1018 10 16.0934 0 0
6:53 am 06:53 Mostly Cloudy 28 -2.2 19 -7.2 69 69 W 9 15 30.09 1019 10 16.0934 0 0
7:53 am 07:53 Sunny 26 -3.3 18 -7.8 71 71 W 8 13 30.1 1019 10 16.0934 0 0
8:53 am 08:53 Cloudy 29 -1.7 20 -6.7 69 69 NW 6 9 30.1 1019 10 16.0934 0 0
9:53 am 09:53 Cloudy 31 -0.6 20 -6.7 64 64 WNW 8 13 30.11 1020 10 16.0934 0 0
10:53 am 10:53 Cloudy 33 0.6 21 -6.1 61 61 WNW 8 13 30.08 1019 10 16.0934 0 0
11:53 am 11:53 Cloudy 35 1.7 22 -5.6 59 59 NW 7 11 30.05 1018 10 16.0934 0 0
12:53 pm 12:53 Cloudy 37 2.8 22 -5.6 54 54 NW 7 11 30.03 1017 10 16.0934 0 0
1:53 pm 13:53 Cloudy 38 3.3 22 -5.6 52 52 NNW 8 13 30.05 1018 10 16.0934 0 0
2:53 pm 14:53 Cloudy 39 3.9 22 -5.6 50 50 WNW 6 9 30.05 1018 10 16.0934 0 0
3:53 pm 15:53 Cloudy 38 3.3 23 -5 55 55 WNW 5 7 30.07 1018 10 16.0934 0 0
4:53 pm 16:53 Cloudy 36 2.2 23 -5 59 59 WNW 5 7 30.09 1019 10 16.0934 0 0
5:53 pm 17:53 Cloudy 35 1.7 25 -3.9 67 67 WNW 5 7 30.13 1020 10 16.0934 0 0
6:53 pm 18:53 Cloudy 37 2.8 24 -4.4 59 59 NW 9 15 30.16 1021 10 16.0934 0 0
7:53 pm 19:53 Cloudy 37 2.8 24 -4.4 59 59 W 6 9 30.18 1022 10 16.0934 0 0
8:53 pm 20:53 Cloudy 36 2.2 25 -3.9 64 64 W 6 9 30.18 1022 10 16.0934 0 0
9:53 pm 21:53 Cloudy 34 1.1 26 -3.3 73 73 NW 3 6 30.18 1022 10 16.0934 0 0
10:53 pm 22:53 Mostly Clear 31 -0.6 25 -3.9 79 79 NNW 3 6 30.2 1023 10 16.0934 0 0
11:53 pm 23:53 Clear 28 -2.2 24 -4.4 85 85 NNW 7 11 30.19 1022 10 16.0934 0 0

Powered by AerisWeather